Tracking 19846 objects as of 20-Sep-2019
HD Live streaming from Space Station
objects crossing your sky now

FENGYUN 1C DEB

Track FENGYUN 1C DEB now!
10-day predictions


NORAD ID: 31937
Int'l Code: 1999-025CMN
Perigee: 556.6 km
Apogee: 882.8 km
Inclination: 99.3 °
Period: 99.0 minutes
Semi major axis: 7090 km
RCS: 0.0094 m2 (small)
Launch date: May 10, 1999
Source: People's Republic of China (PRC)
Launch site: Taiyaun Space Center, China (TSC)

Note: This is SATELLITE DEBRIS
aabbcc
Your satellite tracking list
Your tracking list is empty




NASA's NSSDC Master Catalog

Two Line Element Set (TLE):
1 31937U 99025CMN 19262.15981568  .00000240  00000-0  52437-4 0  9992
2 31937  99.2864  43.7551 0229985 348.3163  11.2746 14.54018001647193
Source of the keplerian elements: AFSPC